Regional Weather Roundup
Issued by NWS

Home | Current Version | Previous Version | Graphics & Text | Print | Product List | Glossary On
Versions: 1 2 3 4 5 6 7 8 9 10 11 12 13 14 15 16 17 18 19 20 21 22 23 24 25 26 27 28 29 30 31 32 33 34 35 36 37 38 39 40 41 42 43 44 45 46 47 48 49 50
000
ASUS45 KCYS 271710
RWRWY

WYOMING REGIONAL WEATHER ROUNDUP
NATIONAL WEATHER SERVICE CHEYENNE WY
1100 AM MDT WED AUG 27 2014

NOTE:  "FAIR" INDICATES FEW OR NO CLOUDS BELOW 12,000 FEET
WITH NO SIGNIFICANT WEATHER AND/OR OBSTRUCTIONS TO VISIBILITY.

WYZ001-271800-
YELLOWSTONE NATIONAL PARK

CITY           SKY/WX    TMP DP  RH WIND       PRES   REMARKS
LK YELLOWSTONE   N/A     53  46  77 E5        30.39S
W YELLOWSTONE  NOT AVBL

$$
WYZ002>013-054>058-071-098>099-271800-
NORTHERN WYOMING

CITY           SKY/WX    TMP DP  RH WIND       PRES   REMARKS
JACKSON        MOSUNNY   55  46  71 CALM      30.32S
CODY           PTSUNNY   70  52  52 CALM      30.18F
GREYBULL       PTSUNNY   70  51  51 CALM      30.13S
WORLAND        CLOUDY    64  54  69 W3        30.15R
SHERIDAN       PTSUNNY   72  52  49 N3        30.13S
BUFFALO        PTSUNNY   71  49  45 SE10      30.19S
GILLETTE       PTSUNNY   72  56  57 SE6       30.15F
HULETT         FAIR      72  55  56 MISG      30.16
NEWCASTLE      FAIR      77  50  38 MISG      30.14

$$
WYZ014>020-022>026-101>103-271800-
CENTRAL WYOMING

CITY           SKY/WX    TMP DP  RH WIND       PRES   REMARKS
BIG PINEY      CLOUDY    53  49  86 S10       30.34R
PINEDALE       CLOUDY    52  46  82 SE7       30.35S
DUBOIS         FAIR      59  43  55 NW5       30.30R
LANDER         LGT RAIN  57  52  83 S7        30.24R
RIVERTON       LGT RAIN  57  49  74 SW10      30.24R
CASPER         RAIN      57  55  93 SW6       30.23R FOG
DOUGLAS        RAIN      61  59  93 CALM      30.20R FOG

$$
WYZ021-027>030-104>119-271800-
SOUTHERN WYOMING

CITY           SKY/WX    TMP DP  RH WIND       PRES   REMARKS
EVANSTON       CLOUDY    55  46  71 CALM      30.35R
KEMMERER       LGT RAIN  50  48  93 CALM      30.36R
FORT BRIDGER   CLOUDY    54  51  89 CALM      30.37S
ROCK SPRINGS   CLOUDY    54  50  86 N9        30.32R
DIXON          PTSUNNY   59  51  73 CALM      30.32F
RAWLINS        CLOUDY    57  50  77 SW14      30.30S
SARATOGA       CLOUDY    55  46  71 MISG      30.31S
LARAMIE        CLOUDY    59  51  75 W9        30.28F
CHEYENNE       CLOUDY    65  53  65 W12       30.22R
TORRINGTON     TSTM      57  57 100 SW8       30.16R VSB 3/4
PINE BLUFFS    CLOUDY    68  61  77 S10G16    30.17S

$$


USA.gov is the U.S. government's official web portal to all federal, state and local government web resources and services.